This demonstration page uses our WeatherBlox Daily Observations layout. Learn more.

Left ArrowRight Arrow

44.31136, -96.79839

Hourly Observations for December 7, 2022

Temp ( °F °C ) Dew Point ( °F °C ) Humidity (%) Winds ( mph kmh ) Pressure ( in mb ) Visibility ( mi km ) Precip ( " mm )
12:32 am 00:32 Mostly Cloudy 18 -8 14 -10 85 85 NNE 10 17 30.24 1024 10 16 0.00 0.00
12:56 am 00:56 Mostly Cloudy 17 -8.3 13 -10.6 83 83 NNE 10 17 30.22 1023 10 16 0.00 0.00
1:06 am 01:06 Partly Cloudy 16 -9 12 -11 85 85 NE 13 20 30.24 1024 10 16 0.00 0.00
1:33 am 01:33 Mostly Cloudy 16 -9 10 -12 79 79 NE 8 13 30.24 1024 10 16 0.00 0.00
1:56 am 01:56 Cloudy 14 -10 11 -11.7 87 87 NE 9 15 30.22 1024 10 16 0.00 0.00
2:56 am 02:56 Cloudy with Light Snow 13 -10.6 9 -12.8 84 84 NE 13 20 30.25 1025 9 14 0.01 0.13
3:18 am 03:18 Cloudy with Light Snow 12 -11 9 -13 85 85 NE 14 22 30.29 1026 9 14 0.01 0.13
3:56 am 03:56 Cloudy with Light Snow 11 -11.7 7 -13.9 84 84 N 10 17 30.28 1026 9 14 0.01 0.13
4:56 am 04:56 Cloudy 12 -11.1 7 -13.9 80 80 N 10 17 30.30 1026 10 16 0.01 0.13
5:56 am 05:56 Cloudy 12 -11.1 6 -14.4 76 76 NNE 8 13 30.32 1027 10 16 0.00 0.00
6:56 am 06:56 Cloudy with Light Snow 10 -12.2 5 -15 80 80 NNE 9 15 30.36 1028 9 14 0.01 0.13
7:56 am 07:56 Cloudy 11 -11.7 6 -14.4 80 80 NNE 6 9 30.40 1029 10 16 0.01 0.13
8:56 am 08:56 Cloudy with Light Snow 8 -13.3 2 -16.7 75 75 NNE 14 22 30.44 1031 9 14 0.01 0.13
9:22 am 09:22 Partly Cloudy 7 -14 1 -17 78 78 N 12 19 30.51 1033 10 16 0.01 0.13
9:56 am 09:56 Sunny 7 -13.9 0 -17.8 72 72 NNE 10 17 30.48 1032 10 16 0.01 0.13
10:56 am 10:56 Sunny 11 -11.7 4 -15.6 73 73 NE 8 13 30.50 1033 10 16 0.00 0.00
11:56 am 11:56 Sunny 14 -10 6 -14.4 70 70 NNE 7 11 30.50 1033 10 16 0.00 0.00
12:56 pm 12:56 Sunny 16 -8.9 8 -13.3 70 70 NNE 7 11 30.48 1032 10 16 0.00 0.00
1:56 pm 13:56 Sunny 18 -7.8 9 -12.8 67 67 NE 3 6 30.48 1032 10 16 0.00 0.00
2:56 pm 14:56 Sunny 19 -7.2 9 -12.8 64 64 Calm 30.48 1032 10 16 0.00 0.00
3:56 pm 15:56 Sunny 19 -7.2 10 -12.2 67 67 E 6 9 30.48 1032 10 16 0.00 0.00
4:56 pm 16:56 Clear 16 -8.9 9 -12.8 73 73 E 8 13 30.48 1032 10 16 0.00 0.00
5:56 pm 17:56 Clear 13 -10.6 8 -13.3 80 80 ESE 10 17 30.50 1033 10 16 0.00 0.00
6:56 pm 18:56 Clear 12 -11.1 7 -13.9 80 80 ESE 10 17 30.51 1033 10 16 0.00 0.00
7:56 pm 19:56 Clear 10 -12.2 6 -14.4 84 84 SE 10 17 30.51 1033 10 16 0.00 0.00
8:56 pm 20:56 Clear 9 -12.8 6 -14.4 88 88 SE 10 17 30.51 1033 10 16 0.00 0.00
9:56 pm 21:56 Clear 10 -12.2 7 -13.9 87 87 SE 8 13 30.50 1033 10 16 0.00 0.00
10:56 pm 22:56 Clear 10 -12.2 7 -13.9 87 87 ESE 9 15 30.48 1032 10 16 0.00 0.00
11:56 pm 23:56 Clear 8 -13.3 5 -15 87 87 SE 7 11 30.48 1032 10 16 0.00 0.00

Powered by AerisWeather